Home   Weather   USA   Okeechobee   Past weeks
Flag for USA

Past Weather in Okeechobee, Florida, USA — Yesterday and Last 2 Weeks

Currently: 63 °F. Clear. (Weather station: Okeechobee County Airport, USA). See more current weather

Past Weather in Okeechobee — Graph

°F

Okeechobee Temperature Yesterday

Maximum temperature yesterday: 79 °F (at 11:35 am)
Minimum temperature yesterday: 63 °F (at 9:55 pm)
Average temperature yesterday: 69 °F

High & Low Weather Summary for the Past Weeks

 TemperatureHumidityPressure
High88 °F (Nov 27, 2:15 pm)100% (Nov 17, 3:15 am)30.25 "Hg (Nov 17, 3:15 am)
Low55 °F (Nov 17, 10:35 pm)47% (Nov 28, 2:35 pm)29.93 "Hg (Nov 27, 3:35 pm)
Average71 °F90%30.09 "Hg
* Reported Nov 17 3:15 am — Dec 2 3:35 am, Okeechobee. Weather by CustomWeather, © 2022

Note: Actual official high and low records may vary slightly from our data, if they occured in-between our weather recording intervals... More about our weather records

Okeechobee Weather History for the Previous 24 Hours

Scroll right to see more
 ConditionsComfort  
Time TempWeatherWind HumidityBarometerVisibility
3:35 am
Fri, Dec 2
63 °FPassing clouds.5 mph100%30.22 "Hg10 mi
3:15 am63 °FPassing clouds.6 mph100%30.23 "Hg10 mi
2:55 am63 °FClear.6 mph100%30.22 "Hg10 mi
2:35 am63 °FPassing clouds.6 mph100%30.22 "Hg10 mi
2:15 am64 °FPassing clouds.7 mph94%30.23 "Hg10 mi
1:55 am64 °FPassing clouds.7 mph100%30.22 "Hg10 mi
1:35 am66 °FClear.7 mph94%30.23 "Hg10 mi
1:15 am66 °FClear.7 mph94%30.23 "Hg10 mi
12:55 am64 °FClear.7 mph100%30.23 "Hg10 mi
12:35 am64 °FClear.6 mph100%30.24 "Hg10 mi
12:15 am64 °FClear.6 mph100%30.24 "Hg10 mi
11:55 pm
Thu, Dec 1
64 °FPassing clouds.6 mph100%30.25 "Hg10 mi
11:35 pm64 °FClear.5 mph100%30.25 "Hg10 mi
11:15 pm63 °FClear.6 mph100%30.25 "Hg10 mi
10:55 pm63 °FClear.5 mph100%30.25 "Hg10 mi
10:35 pm63 °FClear.3 mph100%30.25 "Hg10 mi
10:15 pm63 °FClear.3 mph100%30.25 "Hg10 mi
9:55 pm63 °FClear.5 mph100%30.25 "Hg10 mi
9:35 pm64 °FPassing clouds.3 mph94%30.25 "Hg10 mi
9:15 pm64 °FPassing clouds.No wind94%30.25 "Hg10 mi
8:55 pm64 °FPassing clouds.3 mph94%30.25 "Hg10 mi
8:35 pm64 °FPassing clouds.3 mph94%30.25 "Hg10 mi
7:55 pm66 °FPassing clouds.5 mph88%30.25 "Hg10 mi
6:35 pm68 °FPassing clouds.6 mph83%30.24 "Hg10 mi
6:15 pm68 °FPassing clouds.7 mph83%30.23 "Hg10 mi
5:55 pm70 °FPassing clouds.7 mph78%30.22 "Hg10 mi
5:35 pm72 °FPassing clouds.8 mph78%30.22 "Hg10 mi
5:15 pm73 °FScattered clouds.8 mph74%30.22 "Hg10 mi
4:55 pm73 °FSunny.8 mph74%30.21 "Hg10 mi
4:35 pm75 °FPassing clouds.14 mph69%30.21 "Hg10 mi
4:15 pm75 °FScattered clouds.7 mph69%30.20 "Hg10 mi
3:55 pm77 °FPartly sunny.14 mph65%30.20 "Hg10 mi
3:15 pm77 °FMostly cloudy.12 mph69%30.20 "Hg10 mi
2:55 pm77 °FPartly sunny.10 mph69%30.20 "Hg10 mi
2:35 pm77 °FPartly sunny.9 mph69%30.20 "Hg10 mi
2:15 pm77 °FBroken clouds.12 mph69%30.20 "Hg10 mi
1:55 pm79 °FPartly sunny.9 mph65%30.20 "Hg10 mi
12:55 pm79 °FScattered clouds.14 mph70%30.20 "Hg10 mi
12:35 pm79 °FBroken clouds.15 mph74%30.21 "Hg10 mi
11:55 am77 °FPartly sunny.15 mph79%30.23 "Hg10 mi
11:35 am79 °FPassing clouds.15 mph74%30.23 "Hg10 mi
11:15 am77 °FPassing clouds.20 mph79%30.24 "Hg10 mi
10:55 am77 °FSunny.13 mph79%30.24 "Hg10 mi
10:35 am75 °FSunny.13 mph83%30.24 "Hg10 mi
10:15 am75 °FSunny.16 mph83%30.24 "Hg10 mi
9:55 am73 °FSunny.14 mph83%30.24 "Hg10 mi
9:35 am72 °FSunny.14 mph88%30.24 "Hg10 mi
9:15 am70 °FSunny.15 mph94%30.24 "Hg10 mi
8:55 am70 °FSunny.9 mph94%30.23 "Hg10 mi
8:35 am68 °FSunny.12 mph100%30.23 "Hg10 mi
8:15 am66 °FSunny.10 mph100%30.22 "Hg10 mi
7:55 am66 °FSunny.8 mph100%30.21 "Hg10 mi
7:35 am64 °FSunny.9 mph100%30.21 "Hg10 mi
7:15 am64 °FSunny.7 mph100%30.20 "Hg10 mi
6:55 am64 °FSunny.7 mph100%30.19 "Hg10 mi
6:35 am64 °FClear.8 mph100%30.18 "Hg10 mi
6:15 am64 °FClear.8 mph100%30.17 "Hg10 mi
5:55 am64 °FPassing clouds.8 mph100%30.16 "Hg10 mi
5:15 am64 °FClear.8 mph100%30.15 "Hg10 mi
Weather by CustomWeather, © 2022

See weather overview